Flag for Norway Weather past 2 weeks in Stange, Norway

Now
47 °F

Cool.


Feels Like: 47 °F
Forecast: 43 / 67 °F
Wind: 1 mph from North

Location: Haugedalshogda

Current Time: Aug 21, 2014 at 4:22:04 AM

Latest Report: Aug 21, 2014 at 3:00 AM


Visibility: N/A

Pressure: 29.58 "Hg

Humidity: 91%

Dew point: 45 °F

Location of StangeLocation

Historic Weather in Stange — Graph

°F

Stange temperature yesterday

Maximum temperature yesterday: 64 °F (at 1:00 PM)
Minimum temperature yesterday: 47 °F (at 6:00 AM)
Average temperature yesterday: 55 °F

Past Weeks' High & Low Weather Summary

 TemperatureHumidityPressure
High76 °F (Aug 9, 4:00 PM)95% (Aug 7, 6:00 AM)29.97 "Hg (Aug 7, 6:00 AM)
Low39 °F (Aug 18, 11:00 PM)34% (Aug 9, 3:00 PM)29.18 "Hg (Aug 18, 4:00 PM)
Average56 °F78%29.63 "Hg
* Reported Aug 6 3:00 AM — Aug 21 3:00 AM, Stange, Weather by CustomWeather, © 2014

Note: Actual official high and low records may vary slightly from our data, if they occured in-between our weather recording intervals... More about our weather records

Advertising

Stange weather history for previous 24 hours

 ConditionsComfort  
Time TempWeatherWind HumidityBarometerVisibility
3:00 AM
Aug 21
47 °FCool.1 mph91%29.58 "HgN/A
2:00 AM48 °FCool.1 mph89%29.58 "HgN/A
1:00 AM49 °FCool.3 mph90%29.56 "HgN/A
12:00 AM51 °FCool.3 mph88%29.55 "HgN/A
11:00 PM
Aug 20
51 °FCool.2 mph86%29.54 "HgN/A
10:00 PM53 °FCool.5 mph83%29.50 "HgN/A
9:00 PM53 °FCool.3 mph83%29.50 "HgN/A
8:00 PM56 °FCool.2 mph77%29.47 "HgN/A
7:00 PM59 °FCool.1 mph71%29.47 "HgN/A
6:00 PM58 °FCool.2 mph77%29.44 "HgN/A
5:00 PM59 °FCool.1 mph75%29.44 "HgN/A
4:00 PM60 °FCool.1 mph64%29.44 "HgN/A
3:00 PM59 °FCool.1 mph72%29.44 "HgN/A
2:00 PM63 °FMild.3 mph51%29.41 "HgN/A
1:00 PM64 °FMild.5 mph52%29.41 "HgN/A
12:00 PM61 °FCool.5 mph62%29.41 "HgN/A
11:00 AM60 °FCool.6 mph63%29.41 "HgN/A
10:00 AM57 °FCool.1 mph80%29.41 "HgN/A
9:00 AM53 °FCool.2 mph90%29.41 "HgN/A
8:00 AM51 °FCool.1 mph94%29.41 "HgN/A
7:00 AM50 °FCool.1 mph94%29.41 "HgN/A
6:00 AM47 °FCool.1 mph94%29.41 "HgN/A
5:00 AM49 °FCool.2 mph93%29.38 "HgN/A
4:00 AM50 °FCool.1 mph93%29.38 "HgN/A
Weather by CustomWeather, © 2014

See weather overviewHow to use our weather pages